Location: Sabalos
(43.2860°N, 0.1414°E)
Time: 04:38:28
(UTC+00:00)

Terra - Pass Details

Date: 05 July 2020
Orbit: 701 x 703 km, 98.2° (Epoch: 06 August)

Event Time Altitude Azimuth Distance (km) Brightness Sun altitude
Exits shadow 20:31:36 - 105° (ESE) 2,427 4.0 -8.0°
Reaches altitude 10° 20:32:35 10° 97° (E) 2,172 3.9 -8.1°
Maximum altitude 20:35:20 16° 61° (ENE) 1,827 3.8 -8.5°
Drops below altitude 10° 20:38:05 10° 26° (NNE) 2,180 4.6 -8.8°
Sets 20:41:10 0° 4° (N) 3,103 5.8 -9.2°
